Location: Unspecified
(0.0000°N, 0.0000°E)
Time: 22:01:46
(UTC+02:00)

ARIANE 5 R/B - Visible Passes

Search period start: 24 July 2014 00:00
Search period end: 03 August 2014 00:00
Orbit: 584 x 35637 km, 6.9° (Epoch: 22 July)

Date Brightness Start Highest point End Pass type
(mag) Time Alt. Az. Time Alt. Az. Time Alt. Az.
25 Jul 7.2 05:05:43 47° WSW 14:30:25 76° N 14:40:35 10° ENE visible
26 Jul 7.9 02:17:41 66° ESE 10:49:59 89° SSE 11:41:59 10° E visible
26 Jul 5.1 22:43:43 10° W 22:49:20 88° N 08:32:12 10° E visible
28 Jul 9.5 07:19:58 10° W 08:52:45 31° W 12:38:07 10° W visible
29 Jul 7.5 04:29:41 60° WSW 13:47:30 79° N 14:00:05 10° ENE visible
30 Jul 7.4 00:59:50 10° W 09:25:04 86° SE 11:00:28 10° E visible
30 Jul 4.7 22:03:23 10° W 22:08:09 85° N 07:45:58 10° E visible
01 Aug 6.0 15:37:33 10° W 16:10:47 58° N 16:15:57 10° ENE visible
02 Aug 7.9 03:53:49 72° WSW 05:48:24 82° S 13:19:29 10° ENE visible
